,,PA_Meas_PMT16A,,PR_Meas_QMR101_102,,RH_Meas_QMH101,,SR_Meas_QMS101,,TA_Meas_QMH101,,GenWind,,GenWind,
time,status,PA,status,PR,status,RH,status,SR,status,TA,status,DirAvg,status,SpdAvg,
2014-03-16, 00:00:05,VALID,919.337,VALID,0,VALID,79.6266,VALID,0,VALID,21.9071,VALID,223,VALID,0,
2014-03-16, 00:01:05,VALID,919.328,VALID,0,VALID,79.962,VALID,0,VALID,21.829,VALID,219,VALID,0.5375,
2014-03-16, 00:02:05,VALID,919.328,VALID,0,VALID,80.1983,VALID,0,VALID,21.79,VALID,219,VALID,0.453516,
2014-03-16, 00:03:05,VALID,919.331,VALID,0,VALID,80.5261,VALID,0,VALID,21.7315,VALID,219,VALID,0.535937,
2014-03-16, 00:04:05,VALID,919.366,VALID,0,VALID,80.732,VALID,0,VALID,21.6924,VALID,219,VALID,0.408594,
2014-03-16, 00:05:05,VALID,919.41,VALID,0,VALID,81.0064,VALID,0,VALID,21.6144,VALID,219,VALID,0.917578,
2014-03-16, 00:06:05,VALID,919.404,VALID,0,VALID,81.075,VALID,0,VALID,21.5754,VALID,219,VALID,0.876562,
2014-03-16, 00:07:05,VALID,919.398,VALID,0,VALID,81.2046,VALID,0,VALID,21.5363,VALID,219,VALID,0.972266,
2014-03-16, 00:08:05,VALID,919.42,VALID,0,VALID,81.3571,VALID,0,VALID,21.5559,VALID,219,VALID,0.739844,
2014-03-16, 00:09:05,VALID,919.414,VALID,0,VALID,81.2122,VALID,0,VALID,21.577,VALID,219,VALID,0.392969,
2014-03-16, 00:10:05,VALID,919.421,VALID,0,VALID,81.2885,VALID,0,VALID,21.5754,VALID,219,VALID,0.510547,
2014-03-16, 00:11:05,VALID,919.401,VALID,0,VALID,80.9836,VALID,0,VALID,21.5754,VALID,219,VALID,0.657422,
2014-03-16, 00:12:05,VALID,919.386,VALID,0,VALID,81.0903,VALID,0,VALID,21.5754,VALID,219,VALID,0.919922,
2014-03-16, 00:13:05,VALID,919.357,VALID,0,VALID,81.3266,VALID,0,VALID,21.577,VALID,219,VALID,0.251172,
2014-03-16, 00:14:05,VALID,919.378,VALID,0,VALID,81.2427,VALID,0,VALID,21.577,VALID,219,VALID,1.21523,
2014-03-16, 00:15:05,VALID,919.394,VALID,0,VALID,81.441,VALID,0,VALID,21.5575,VALID,219,VALID,0.847266,
2014-03-16, 00:16:05,VALID,919.381,VALID,0,VALID,82.2109,VALID,0,VALID,21.5168,VALID,219,VALID,0.4375,
2014-03-16, 00:17:05,VALID,919.383,VALID,0,VALID,82.0661,VALID,0,VALID,21.4794,VALID,207,VALID,0.628906,
2014-03-16, 00:18:05,VALID,919.297,VALID,0,VALID,81.8984,VALID,0,VALID,21.538,VALID,116,VALID,1.66445,
2014-03-16, 00:19:05,VALID,919.297,VALID,0,VALID,81.6925,VALID,0,VALID,21.6534,VALID,63,VALID,1.01523,
2014-03-16, 00:20:05,VALID,919.313,VALID,0,VALID,81.1513,VALID,0,VALID,21.7526,VALID,92,VALID,1.13906,
2014-03-16, 00:21:05,VALID,919.311,VALID,0,VALID,80.7167,VALID,0,VALID,21.7705,VALID,74,VALID,1.79102,
2014-03-16, 00:22:05,VALID,919.277,VALID,0,VALID,80.1907,VALID,0,VALID,21.8681,VALID,104,VALID,1.77109,
2014-03-16, 00:23:05,VALID,919.266,VALID,0,VALID,80.4804,VALID,0,VALID,21.9673,VALID,76,VALID,1.2582,
2014-03-16, 00:24:05,VALID,919.28,VALID,0,VALID,80.206,VALID,0,VALID,21.9461,VALID,73,VALID,1.91836,
2014-03-16, 00:25:05,VALID,919.291,VALID,0,VALID,79.901,VALID,0,VALID,21.9656,VALID,77,VALID,1.99883,
2014-03-16, 00:26:05,VALID,919.226,VALID,0,VALID,79.5122,VALID,0,VALID,21.9835,VALID,113,VALID,2.09258,
2014-03-16, 00:27:05,VALID,919.212,VALID,0,VALID,79.6418,VALID,0,VALID,22.042,VALID,32,VALID,1.1918,
2014-03-16, 00:28:05,VALID,919.232,VALID,0,VALID,79.6418,VALID,0,VALID,22.0632,VALID,90,VALID,1.46289,
2014-03-16, 00:29:05,VALID,919.188,VALID,0,VALID,79.6037,VALID,0,VALID,22.0225,VALID,102,VALID,1.92578,
2014-03-16, 00:30:05,VALID,919.225,VALID,0,VALID,79.5961,VALID,0.107441,VALID,22.003,VALID,120,VALID,1.37617,
2014-03-16, 00:31:05,VALID,919.218,VALID,0,VALID,79.6037,VALID,0.107441,VALID,22.003,VALID,100,VALID,1.41055,
2014-03-16, 00:32:05,VALID,919.174,VALID,0,VALID,79.6876,VALID,0,VALID,22.0047,VALID,129,VALID,1.48984,
2014-03-16, 00:33:05,VALID,919.183,VALID,0,VALID,79.6418,VALID,0,VALID,22.0047,VALID,90,VALID,0.801953,
2014-03-16, 00:34:05,VALID,919.166,VALID,0,VALID,79.84,VALID,0.107441,VALID,21.9851,VALID,112,VALID,1.49531,
2014-03-16, 00:35:05,VALID,919.162,VALID,0,VALID,79.9239,VALID,0,VALID,21.9054,VALID,109,VALID,1.34023,
2014-03-16, 00:36:05,VALID,919.172,VALID,0,VALID,80.0764,VALID,0.107441,VALID,21.8859,VALID,124,VALID,1.18086,
2014-03-16, 00:37:05,VALID,919.14,VALID,0,VALID,80.0306,VALID,0,VALID,21.8664,VALID,125,VALID,1.22031,
2014-03-16, 00:38:05,VALID,919.164,VALID,0,VALID,80.1526,VALID,0,VALID,21.8664,VALID,143,VALID,0.645703,
2014-03-16, 00:39:05,VALID,919.174,VALID,0,VALID,80.2974,VALID,0,VALID,21.8274,VALID,217,VALID,0.951172,
2014-03-16, 00:40:05,VALID,919.178,VALID,0,VALID,80.3584,VALID,0,VALID,21.8079,VALID,113,VALID,1.30547,
2014-03-16, 00:41:05,VALID,919.134,VALID,0,VALID,80.5414,VALID,0,VALID,21.7883,VALID,130,VALID,0.328516,
2014-03-16, 00:42:05,VALID,919.182,VALID,0,VALID,80.6939,VALID,0,VALID,21.7688,VALID,128,VALID,1.04141,
2014-03-16, 00:43:05,VALID,919.155,VALID,0,VALID,80.4575,VALID,0,VALID,21.7298,VALID,91,VALID,1.86992,
2014-03-16, 00:44:05,VALID,919.153,VALID,0,VALID,79.7257,VALID,0,VALID,21.8469,VALID,115,VALID,1.00195,
2014-03-16, 00:45:05,VALID,919.166,VALID,0,VALID,79.7181,VALID,0.107441,VALID,21.9071,VALID,140,VALID,2.025,
2014-03-16, 00:46:05,VALID,919.161,VALID,0,VALID,79.7562,VALID,0,VALID,21.9266,VALID,79,VALID,2.04023,
2014-03-16, 00:47:05,VALID,919.136,VALID,0,VALID,79.6723,VALID,0,VALID,21.9071,VALID,113,VALID,1.425,
2014-03-16, 00:48:05,VALID,919.112,VALID,0,VALID,79.779,VALID,0,VALID,21.9266,VALID,98,VALID,0.728125,
2014-03-16, 00:49:05,VALID,919.072,VALID,0,VALID,79.7638,VALID,0.107441,VALID,21.8681,VALID,94,VALID,1.22187,
2014-03-16, 00:50:05,VALID,919.047,VALID,0,VALID,80.0687,VALID,0.107441,VALID,21.8469,VALID,95,VALID,1.05859,
2014-03-16, 00:51:05,VALID,919.032,VALID,0,VALID,80.2441,VALID,0,VALID,21.7883,VALID,84,VALID,0.675781,
2014-03-16, 00:52:05,VALID,919.051,VALID,0,VALID,80.1907,VALID,0,VALID,21.7493,VALID,92,VALID,2.07266,
2014-03-16, 00:53:05,VALID,918.985,VALID,0,VALID,80.145,VALID,0,VALID,21.79,VALID,67,VALID,1.34453,
2014-03-16, 00:54:05,VALID,919.04,VALID,0,VALID,80.3203,VALID,0,VALID,21.7493,VALID,69,VALID,1.22383,
2014-03-16, 00:55:05,VALID,918.978,VALID,0,VALID,80.2288,VALID,0,VALID,21.7298,VALID,69,VALID,1.41289,
2014-03-16, 00:56:05,VALID,918.97,VALID,0,VALID,80.1602,VALID,0,VALID,21.7688,VALID,97,VALID,0.844141,
2014-03-16, 00:57:05,VALID,918.946,VALID,0,VALID,79.7181,VALID,0,VALID,21.79,VALID,52,VALID,2.36211,
2014-03-16, 00:58:05,VALID,918.953,VALID,0,VALID,79.2912,VALID,0,VALID,21.8469,VALID,98,VALID,1.09336,
2014-03-16, 00:59:05,VALID,918.961,VALID,0,VALID,79.2988,VALID,0,VALID,21.8876,VALID,77,VALID,1.30781,
2014-03-16, 01:00:05,VALID,918.949,VALID,0,VALID,79.3979,VALID,0,VALID,21.8664,VALID,100,VALID,0.94375,
2014-03-16, 01:01:05,VALID,918.988,VALID,0,VALID,79.4284,VALID,0,VALID,21.8485,VALID,100,VALID,0.813281,
2014-03-16, 01:02:05,VALID,918.959,VALID,0,VALID,79.436,VALID,0,VALID,21.8485,VALID,98,VALID,1.14766,
2014-03-16, 01:03:05,VALID,918.933,VALID,0,VALID,79.4512,VALID,0.107441,VALID,21.8469,VALID,120,VALID,0.903516,
2014-03-16, 01:04:05,VALID,918.949,VALID,0,VALID,79.3598,VALID,0.107441,VALID,21.8274,VALID,119,VALID,1.39063,
2014-03-16, 01:05:05,VALID,918.956,VALID,0,VALID,79.5122,VALID,0.107441,VALID,21.8079,VALID,118,VALID,0.967969,
2014-03-16, 01:06:05,VALID,918.914,VALID,0,VALID,79.7486,VALID,0,VALID,21.8095,VALID,118,VALID,0.478125,
2014-03-16, 01:07:05,VALID,918.917,VALID,0,VALID,79.9163,VALID,0,VALID,21.7705,VALID,108,VALID,1.04531,
2014-03-16, 01:08:05,VALID,918.865,VALID,0,VALID,79.4131,VALID,0.107441,VALID,21.7688,VALID,130,VALID,1.44727,
2014-03-16, 01:09:05,VALID,918.836,VALID,0,VALID,79.6952,VALID,0,VALID,21.7883,VALID,83,VALID,1.23477,
2014-03-16, 01:10:05,VALID,918.741,VALID,0,VALID,79.5656,VALID,0,VALID,21.7493,VALID,85,VALID,1.60078,
2014-03-16, 01:11:05,VALID,918.745,VALID,0,VALID,79.9163,VALID,0,VALID,21.751,VALID,67,VALID,1.6125,
2014-03-16, 01:12:05,VALID,918.697,VALID,0,VALID,79.0777,VALID,0,VALID,21.79,VALID,72,VALID,1.9332,
2014-03-16, 01:13:05,VALID,918.626,VALID,0,VALID,78.9252,VALID,0,VALID,21.8485,VALID,82,VALID,1.87734,
2014-03-16, 01:14:05,VALID,918.571,VALID,0,VALID,78.4983,VALID,0,VALID,21.8681,VALID,61,VALID,2.47969,
2014-03-16, 01:15:05,VALID,918.564,VALID,0,VALID,78.2086,VALID,0,VALID,22.0047,VALID,110,VALID,1.75312,
2014-03-16, 01:16:05,VALID,918.558,VALID,0,VALID,78.3611,VALID,0,VALID,22.0047,VALID,92,VALID,1.17539,
2014-03-16, 01:17:05,VALID,918.511,VALID,0,VALID,78.4907,VALID,0,VALID,21.9461,VALID,132,VALID,1.51602,
2014-03-16, 01:18:05,VALID,918.498,VALID,0,VALID,78.5212,VALID,0,VALID,21.9266,VALID,118,VALID,1.38867,
2014-03-16, 01:19:05,VALID,918.54,VALID,0,VALID,78.6355,VALID,0,VALID,21.9266,VALID,132,VALID,1.86094,
2014-03-16, 01:20:05,VALID,918.5,VALID,0,VALID,78.4754,VALID,0,VALID,21.9461,VALID,106,VALID,2.05781,
2014-03-16, 01:21:05,VALID,918.508,VALID,0,VALID,78.788,VALID,0,VALID,21.9266,VALID,137,VALID,0.879297,
2014-03-16, 01:22:05,VALID,918.499,VALID,0,VALID,79.1997,VALID,0,VALID,21.8681,VALID,152,VALID,1.58906,
2014-03-16, 01:23:05,VALID,918.484,VALID,0,VALID,79.6342,VALID,0,VALID,21.79,VALID,147,VALID,1.53906,
2014-03-16, 01:24:05,VALID,918.48,VALID,0,VALID,79.9315,VALID,0,VALID,21.7298,VALID,163,VALID,1.08945,
2014-03-16, 01:25:05,VALID,918.413,VALID,0,VALID,80.4347,VALID,0.107441,VALID,21.6713,VALID,157,VALID,0.703906,
2014-03-16, 01:26:05,VALID,918.42,VALID,0,VALID,80.8235,VALID,0.107441,VALID,21.5737,VALID,150,VALID,1.03398,
2014-03-16, 01:27:05,VALID,918.33,VALID,0,VALID,81.0293,VALID,0.107441,VALID,21.5347,VALID,147,VALID,2.16523,
2014-03-16, 01:28:05,VALID,918.343,VALID,0,VALID,81.5096,VALID,0.107441,VALID,21.4762,VALID,149,VALID,1.51016,
2014-03-16, 01:29:05,VALID,918.286,VALID,0,VALID,81.601,VALID,0,VALID,21.4177,VALID,145,VALID,1.61563,
2014-03-16, 01:30:05,VALID,918.235,VALID,0,VALID,81.662,VALID,0.107441,VALID,21.4372,VALID,157,VALID,1.0668,
2014-03-16, 01:31:05,VALID,918.215,VALID,0,VALID,81.5172,VALID,0.107441,VALID,21.4177,VALID,122,VALID,2.15703,
2014-03-16, 01:32:05,VALID,918.163,VALID,0,VALID,81.3647,VALID,0.107441,VALID,21.4957,VALID,122,VALID,1.35781,
2014-03-16, 01:33:05,VALID,918.175,VALID,0,VALID,81.4714,VALID,0,VALID,21.4567,VALID,122,VALID,0.574219,
2014-03-16, 01:34:05,VALID,918.137,VALID,0,VALID,81.8602,VALID,0.107441,VALID,21.4177,VALID,95,VALID,1.14414,
2014-03-16, 01:35:05,VALID,918.104,VALID,0,VALID,82.1042,VALID,0.107441,VALID,21.299,VALID,126,VALID,0.999609,
2014-03-16, 01:36:05,VALID,918.085,VALID,0,VALID,82.1499,VALID,0.107441,VALID,21.3396,VALID,132,VALID,1.425,
2014-03-16, 01:37:05,VALID,918.028,VALID,0,VALID,82.1728,VALID,0.107441,VALID,21.3201,VALID,131,VALID,1.61445,
2014-03-16, 01:38:05,VALID,918.045,VALID,0,VALID,81.7001,VALID,0.107441,VALID,21.4177,VALID,136,VALID,2.69102,
2014-03-16, 01:39:05,VALID,918.026,VALID,0,VALID,81.2732,VALID,0.107441,VALID,21.4941,VALID,120,VALID,2.37852,
2014-03-16, 01:40:05,VALID,918.038,VALID,0,VALID,80.9149,VALID,0,VALID,21.5932,VALID,91,VALID,2.45039,
2014-03-16, 01:41:05,VALID,918.075,VALID,0,VALID,80.7853,VALID,0,VALID,21.5932,VALID,152,VALID,1.70469,
2014-03-16, 01:42:05,VALID,918.121,VALID,0,VALID,80.5948,VALID,0.107441,VALID,21.6518,VALID,144,VALID,3.00469,
2014-03-16, 01:43:05,VALID,918.146,VALID,0,VALID,80.2212,VALID,0,VALID,21.7103,VALID,117,VALID,1.59297,
2014-03-16, 01:44:05,VALID,918.222,VALID,0,VALID,80.1831,VALID,0.107441,VALID,21.7298,VALID,130,VALID,1.48398,
2014-03-16, 01:45:05,VALID,918.294,VALID,0,VALID,80.2746,VALID,0,VALID,21.7298,VALID,133,VALID,1.11133,
2014-03-16, 01:46:05,VALID,918.345,VALID,0,VALID,80.4194,VALID,0,VALID,21.6713,VALID,131,VALID,0.898828,
2014-03-16, 01:47:05,VALID,918.384,VALID,0,VALID,80.3432,VALID,0.107441,VALID,21.6713,VALID,140,VALID,1.20313,
2014-03-16, 01:48:05,VALID,918.401,VALID,0,VALID,80.1145,VALID,0.107441,VALID,21.7298,VALID,118,VALID,0.764844,
2014-03-16, 01:49:05,VALID,918.43,VALID,0,VALID,80.1678,VALID,0.107441,VALID,21.7298,VALID,147,VALID,0.348828,
2014-03-16, 01:50:05,VALID,918.471,VALID,0,VALID,80.3432,VALID,0.107441,VALID,21.7103,VALID,169,VALID,0.848437,
2014-03-16, 01:51:05,VALID,918.49,VALID,0,VALID,80.3508,VALID,0.107441,VALID,21.6908,VALID,141,VALID,1.04727,
2014-03-16, 01:52:05,VALID,918.475,VALID,0,VALID,80.4347,VALID,0.107441,VALID,21.6908,VALID,137,VALID,1.06484,
2014-03-16, 01:53:05,VALID,918.439,VALID,0,VALID,80.4575,VALID,0.107441,VALID,21.6713,VALID,172,VALID,0.257031,
2014-03-16, 01:54:05,VALID,918.451,VALID,0,VALID,80.5033,VALID,0.107441,VALID,21.6518,VALID,172,VALID,0.430859,
2014-03-16, 01:55:05,VALID,918.399,VALID,0,VALID,80.6481,VALID,0,VALID,21.6323,VALID,131,VALID,1.43203,
2014-03-16, 01:56:05,VALID,918.423,VALID,0,VALID,80.8158,VALID,0,VALID,21.5932,VALID,156,VALID,0.871094,
2014-03-16, 01:57:05,VALID,918.385,VALID,0,VALID,80.9302,VALID,0,VALID,21.5754,VALID,150,VALID,0.914844,
2014-03-16, 01:58:05,VALID,918.326,VALID,0,VALID,80.9378,VALID,0,VALID,21.5363,VALID,161,VALID,1.25156,
2014-03-16, 01:59:05,VALID,918.284,VALID,0,VALID,81.0369,VALID,0,VALID,21.5559,VALID,130,VALID,1.52852,
2014-03-16, 02:00:05,VALID,918.209,VALID,0,VALID,80.9073,VALID,0,VALID,21.5754,VALID,95,VALID,1.3918,
2014-03-16, 02:01:05,VALID,918.19,VALID,0,VALID,80.8158,VALID,0,VALID,21.5754,VALID,132,VALID,1.17227,
2014-03-16, 02:02:05,VALID,918.152,VALID,0,VALID,80.8235,VALID,0,VALID,21.5754,VALID,151,VALID,0.269531,
2014-03-16, 02:03:05,VALID,918.123,VALID,0,VALID,80.732,VALID,0,VALID,21.5347,VALID,151,VALID,0.55,
2014-03-16, 02:04:05,VALID,918.144,VALID,0,VALID,81.0293,VALID,0,VALID,21.5363,VALID,151,VALID,0.822266,
2014-03-16, 02:05:05,VALID,918.147,VALID,0,VALID,80.9759,VALID,0,VALID,21.4973,VALID,148,VALID,0.599219,
2014-03-16, 02:06:05,VALID,918.144,VALID,0,VALID,81.4333,VALID,0,VALID,21.4973,VALID,117,VALID,0.734375,
2014-03-16, 02:07:05,VALID,918.136,VALID,0,VALID,81.4181,VALID,0,VALID,21.4193,VALID,165,VALID,1.18672,
2014-03-16, 02:08:05,VALID,918.168,VALID,0,VALID,81.4943,VALID,0,VALID,21.3998,VALID,170,VALID,0.597266,
2014-03-16, 02:09:05,VALID,918.242,VALID,0,VALID,81.6315,VALID,0,VALID,21.3998,VALID,132,VALID,0.820703,
2014-03-16, 02:10:05,VALID,918.224,VALID,0,VALID,81.5629,VALID,0,VALID,21.3803,VALID,165,VALID,1.25781,
2014-03-16, 02:11:05,VALID,918.288,VALID,0,VALID,81.6849,VALID,0,VALID,21.3803,VALID,144,VALID,1.13672,
2014-03-16, 02:12:05,VALID,918.33,VALID,0,VALID,81.3419,VALID,0,VALID,21.4193,VALID,168,VALID,0.669531,
2014-03-16, 02:13:05,VALID,918.304,VALID,0,VALID,81.1208,VALID,0,VALID,21.4193,VALID,188,VALID,1.09766,
2014-03-16, 02:14:05,VALID,918.34,VALID,0,VALID,80.6252,VALID,0,VALID,21.5168,VALID,172,VALID,1.57734,
2014-03-16, 02:15:05,VALID,918.354,VALID,0,VALID,80.3965,VALID,0,VALID,21.5754,VALID,138,VALID,0.548047,
2014-03-16, 02:16:05,VALID,918.329,VALID,0,VALID,80.3661,VALID,0,VALID,21.5949,VALID,166,VALID,0.948438,
2014-03-16, 02:17:05,VALID,918.324,VALID,0,VALID,80.5719,VALID,0,VALID,21.5949,VALID,166,VALID,0.148438,
2014-03-16, 02:18:05,VALID,918.299,VALID,0,VALID,80.7701,VALID,0,VALID,21.5559,VALID,157,VALID,1.20156,
2014-03-16, 02:19:05,VALID,918.258,VALID,0,VALID,80.4804,VALID,0,VALID,21.5168,VALID,139,VALID,1.41914,
2014-03-16, 02:20:05,VALID,918.233,VALID,0,VALID,79.7867,VALID,0,VALID,21.5932,VALID,139,VALID,2.09648,
2014-03-16, 02:21:05,VALID,918.177,VALID,0,VALID,79.5885,VALID,0,VALID,21.6534,VALID,126,VALID,1.76445,
2014-03-16, 02:22:05,VALID,918.172,VALID,0,VALID,80.0535,VALID,0,VALID,21.6729,VALID,79,VALID,0.801172,
2014-03-16, 02:23:05,VALID,918.094,VALID,0,VALID,80.0382,VALID,0,VALID,21.6144,VALID,133,VALID,0.528906,
2014-03-16, 02:24:05,VALID,918.087,VALID,0,VALID,79.9925,VALID,0,VALID,21.6128,VALID,110,VALID,1.10234,
2014-03-16, 02:25:05,VALID,918.069,VALID,0,VALID,80.1145,VALID,0.107441,VALID,21.5916,VALID,90,VALID,0.7875,
2014-03-16, 02:26:05,VALID,918.037,VALID,0,VALID,79.8172,VALID,0.107441,VALID,21.5932,VALID,149,VALID,1.30313,
2014-03-16, 02:27:05,VALID,918.042,VALID,0,VALID,80.1297,VALID,0.107441,VALID,21.6323,VALID,92,VALID,1.10469,
2014-03-16, 02:28:05,VALID,918.031,VALID,0,VALID,79.8705,VALID,0.107441,VALID,21.5932,VALID,122,VALID,0.998047,
2014-03-16, 02:29:05,VALID,918.024,VALID,0,VALID,80.0611,VALID,0,VALID,21.5932,VALID,105,VALID,0.909375,
2014-03-16, 02:30:05,VALID,918.062,VALID,0,VALID,80.1297,VALID,0,VALID,21.5542,VALID,120,VALID,0.8375,
2014-03-16, 02:31:05,VALID,918.052,VALID,0,VALID,80.0687,VALID,0,VALID,21.5754,VALID,104,VALID,1.85586,
2014-03-16, 02:32:05,VALID,918.008,VALID,0,VALID,80.3584,VALID,0.107441,VALID,21.5347,VALID,80,VALID,0.530859,
2014-03-16, 02:33:05,VALID,918.009,VALID,0,VALID,80.4118,VALID,0.107441,VALID,21.5152,VALID,128,VALID,0.783594,
2014-03-16, 02:34:05,VALID,917.998,VALID,0,VALID,80.4575,VALID,0.107441,VALID,21.5363,VALID,130,VALID,0.591797,
2014-03-16, 02:35:05,VALID,917.986,VALID,0,VALID,80.1831,VALID,0.107441,VALID,21.5347,VALID,119,VALID,0.923047,
2014-03-16, 02:36:05,VALID,917.936,VALID,0,VALID,79.901,VALID,0.107441,VALID,21.5737,VALID,106,VALID,0.946094,
2014-03-16, 02:37:05,VALID,917.925,VALID,0,VALID,80.0306,VALID,0.107441,VALID,21.6128,VALID,107,VALID,0.539063,
2014-03-16, 02:38:05,VALID,917.956,VALID,0,VALID,79.9696,VALID,0.107441,VALID,21.5932,VALID,98,VALID,1.24844,
2014-03-16, 02:39:05,VALID,917.975,VALID,0,VALID,80.1526,VALID,0,VALID,21.6144,VALID,116,VALID,1.51836,
2014-03-16, 02:40:04,VALID,917.949,VALID,0,VALID,80.0154,VALID,0,VALID,21.5347,VALID,69,VALID,2.02617,
2014-03-16, 02:41:04,VALID,918.046,VALID,0,VALID,80.0154,VALID,0,VALID,21.5542,VALID,81,VALID,1.17227,
2014-03-16, 02:42:04,VALID,918.07,VALID,0,VALID,79.4207,VALID,0.107441,VALID,21.5932,VALID,137,VALID,1.73477,
2014-03-16, 02:43:04,VALID,918.071,VALID,0,VALID,79.3216,VALID,0,VALID,21.6713,VALID,133,VALID,1.03086,
2014-03-16, 02:44:04,VALID,918.093,VALID,0,VALID,79.2378,VALID,0,VALID,21.6908,VALID,128,VALID,1.25078,
2014-03-16, 02:45:04,VALID,918.087,VALID,0,VALID,79.5351,VALID,0.107441,VALID,21.6713,VALID,131,VALID,1.33945,
2014-03-16, 02:46:04,VALID,918.098,VALID,0,VALID,79.8705,VALID,0,VALID,21.6323,VALID,145,VALID,1.04258,
2014-03-16, 02:47:04,VALID,918.059,VALID,0,VALID,79.7638,VALID,0.214882,VALID,21.5932,VALID,164,VALID,1.32539,
2014-03-16, 02:48:04,VALID,918.062,VALID,0,VALID,79.253,VALID,0.107441,VALID,21.6713,VALID,169,VALID,0.677734,
2014-03-16, 02:49:04,VALID,918.079,VALID,0,VALID,79.1158,VALID,0.107441,VALID,21.6696,VALID,193,VALID,1.35781,
2014-03-16, 02:50:04,VALID,918.088,VALID,0,VALID,79.2149,VALID,0,VALID,21.7298,VALID,120,VALID,0.80625,
2014-03-16, 02:51:04,VALID,918.068,VALID,0,VALID,79.0701,VALID,0.107441,VALID,21.7103,VALID,175,VALID,1.31016,
2014-03-16, 02:52:04,VALID,918.062,VALID,0,VALID,79.2225,VALID,0.107441,VALID,21.7103,VALID,172,VALID,0.807422,
2014-03-16, 02:53:04,VALID,918.026,VALID,0,VALID,79.779,VALID,0,VALID,21.6908,VALID,173,VALID,0.829297,
2014-03-16, 02:54:04,VALID,918.002,VALID,0,VALID,79.5275,VALID,0,VALID,21.6534,VALID,184,VALID,0.532031,
2014-03-16, 02:55:04,VALID,917.976,VALID,0,VALID,79.8782,VALID,0.107441,VALID,21.6729,VALID,181,VALID,0.947266,
2014-03-16, 02:56:04,VALID,918.008,VALID,0,VALID,79.962,VALID,0,VALID,21.5542,VALID,171,VALID,0.912109,
2014-03-16, 02:57:04,VALID,918.013,VALID,0,VALID,80.2669,VALID,0,VALID,21.5754,VALID,170,VALID,0.627734,
2014-03-16, 02:58:04,VALID,918.01,VALID,0,VALID,80.6024,VALID,0.107441,VALID,21.5168,VALID,170,VALID,0.654297,
2014-03-16, 02:59:04,VALID,917.995,VALID,0,VALID,81.1513,VALID,0,VALID,21.4388,VALID,169,VALID,1.32266,
2014-03-16, 03:00:04,VALID,918.004,VALID,0,VALID,81.4105,VALID,0,VALID,21.3591,VALID,185,VALID,1.61523,
2014-03-16, 03:01:04,VALID,918.023,VALID,0,VALID,81.4028,VALID,0,VALID,21.3006,VALID,188,VALID,1.04258,
2014-03-16, 03:02:04,VALID,918.058,VALID,0,VALID,81.784,VALID,0,VALID,21.2811,VALID,188,VALID,0.779688,
2014-03-16, 03:03:04,VALID,918.095,VALID,0,VALID,82.0432,VALID,0,VALID,21.2827,VALID,188,VALID,0.761719,
2014-03-16, 03:04:04,VALID,918.061,VALID,0,VALID,82.0508,VALID,0,VALID,21.2031,VALID,185,VALID,1.07852,
2014-03-16, 03:05:04,VALID,918.052,VALID,0,VALID,82.2872,VALID,0,VALID,21.1836,VALID,179,VALID,0.917578,
2014-03-16, 03:06:04,VALID,918.023,VALID,0,VALID,82.615,VALID,0,VALID,21.1657,VALID,177,VALID,1.05625,
2014-03-16, 03:07:04,VALID,918.009,VALID,0,VALID,82.8589,VALID,0,VALID,21.1071,VALID,170,VALID,1.01875,
2014-03-16, 03:08:04,VALID,917.986,VALID,0,VALID,82.9733,VALID,0,VALID,21.047,VALID,175,VALID,1.45977,
2014-03-16, 03:09:04,VALID,917.954,VALID,0,VALID,83.0114,VALID,0,VALID,21.0291,VALID,165,VALID,1.08711,
2014-03-16, 03:10:04,VALID,917.947,VALID,0,VALID,83.0571,VALID,0,VALID,21.0096,VALID,165,VALID,1.36641,
2014-03-16, 03:11:04,VALID,917.892,VALID,0,VALID,83.0876,VALID,0,VALID,21.0291,VALID,166,VALID,0.901563,
2014-03-16, 03:12:04,VALID,917.889,VALID,0,VALID,83.1867,VALID,0,VALID,21.0096,VALID,163,VALID,1.16172,
2014-03-16, 03:13:04,VALID,917.885,VALID,0,VALID,83.202,VALID,0,VALID,20.9917,VALID,163,VALID,0.829297,
2014-03-16, 03:14:04,VALID,917.832,VALID,0,VALID,83.141,VALID,0,VALID,20.9706,VALID,141,VALID,0.695703,
2014-03-16, 03:15:04,VALID,917.799,VALID,0,VALID,83.1867,VALID,0,VALID,20.9917,VALID,170,VALID,1.05352,
2014-03-16, 03:16:04,VALID,917.813,VALID,0,VALID,82.9199,VALID,0,VALID,20.9706,VALID,172,VALID,1.81133,
2014-03-16, 03:17:04,VALID,917.823,VALID,0,VALID,82.5235,VALID,0,VALID,21.0291,VALID,142,VALID,1.56406,
2014-03-16, 03:18:04,VALID,917.802,VALID,0,VALID,82.493,VALID,0,VALID,21.0697,VALID,156,VALID,0.494922,
2014-03-16, 03:19:04,VALID,917.804,VALID,0,VALID,82.5082,VALID,0,VALID,21.0502,VALID,114,VALID,0.701172,
2014-03-16, 03:20:04,VALID,917.764,VALID,0,VALID,82.554,VALID,0,VALID,21.0291,VALID,113,VALID,1.20352,
2014-03-16, 03:21:04,VALID,917.784,VALID,0,VALID,82.7674,VALID,0,VALID,20.9901,VALID,145,VALID,0.407031,
2014-03-16, 03:22:04,VALID,917.779,VALID,0,VALID,82.8132,VALID,0,VALID,20.9722,VALID,153,VALID,0.748438,
2014-03-16, 03:23:04,VALID,917.759,VALID,0,VALID,82.9809,VALID,0,VALID,20.9722,VALID,160,VALID,0.564453,
2014-03-16, 03:24:04,VALID,917.786,VALID,0,VALID,83.1791,VALID,0,VALID,20.9331,VALID,110,VALID,0.766016,
2014-03-16, 03:25:04,VALID,917.761,VALID,0,VALID,82.8818,VALID,0,VALID,20.912,VALID,114,VALID,0.817969,
2014-03-16, 03:26:04,VALID,917.758,VALID,0,VALID,82.9046,VALID,0,VALID,20.9527,VALID,113,VALID,0.491406,
2014-03-16, 03:27:04,VALID,917.728,VALID,0,VALID,82.9961,VALID,0,VALID,20.9511,VALID,113,VALID,0.153125,
2014-03-16, 03:28:04,VALID,917.74,VALID,0,VALID,82.9809,VALID,0,VALID,20.9331,VALID,114,VALID,0.175781,
2014-03-16, 03:29:04,VALID,917.709,VALID,0,VALID,82.9885,VALID,0,VALID,20.912,VALID,114,VALID,0.326953,
2014-03-16, 03:30:04,VALID,917.705,VALID,0,VALID,83.1105,VALID,0,VALID,20.9527,VALID,109,VALID,0.564844,
2014-03-16, 03:31:04,VALID,917.71,VALID,0,VALID,83.0571,VALID,0,VALID,20.9136,VALID,110,VALID,0.0136719,
2014-03-16, 03:32:04,VALID,917.734,VALID,0,VALID,82.5387,VALID,0,VALID,20.912,VALID,150,VALID,0.501172,
2014-03-16, 03:33:04,VALID,917.777,VALID,0,VALID,82.4777,VALID,0,VALID,20.9511,VALID,150,VALID,0.217578,
2014-03-16, 03:34:04,VALID,917.798,VALID,0,VALID,82.8589,VALID,0,VALID,20.9706,VALID,150,VALID,0.0226563,
2014-03-16, 03:35:04,VALID,917.825,VALID,0,VALID,82.4472,VALID,0,VALID,20.9722,VALID,149,VALID,0.140234,
2014-03-16, 03:36:04,VALID,917.866,VALID,0,VALID,82.4701,VALID,0,VALID,21.0112,VALID,150,VALID,0,
2014-03-16, 03:37:04,VALID,917.902,VALID,0,VALID,82.5082,VALID,0,VALID,21.0112,VALID,149,VALID,0.707031,
2014-03-16, 03:38:04,VALID,917.935,VALID,0,VALID,82.5235,VALID,0,VALID,20.9901,VALID,151,VALID,0.481641,
2014-03-16, 03:39:04,VALID,917.911,VALID,0,VALID,82.7674,VALID,0,VALID,21.0291,VALID,350,VALID,0.729297,
2014-03-16, 03:40:04,VALID,917.96,VALID,0,VALID,82.1957,VALID,0,VALID,21.0486,VALID,150,VALID,1.4457,
2014-03-16, 03:41:04,VALID,917.984,VALID,0,VALID,82.0051,VALID,0,VALID,21.0665,VALID,208,VALID,0.910937,
2014-03-16, 03:42:04,VALID,918.021,VALID,0,VALID,81.6544,VALID,0,VALID,21.1071,VALID,186,VALID,1.29648,